This is the latest recevied weather packets stored in our database for station/object KQ4WWD. If no packets are shown the sender has not sent any weather packets the latest 10 day(s).
| Time | Temp. | Humidity | Pressure | Rain* | Wind** | Luminosity | Snow |
|---|---|---|---|---|---|---|---|
| 1777728494 | 23.89° C | 90% | 1010.6 hPa | 0 mm | - | 92 W/m² | - |
| 1777728192 | 23.89° C | 90% | 1010.4 hPa | 0 mm | - | 85 W/m² | - |
| 1777727889 | 23.89° C | 90% | 1010.4 hPa | 0 mm | - | 98 W/m² | - |
| 1777727586 | 23.89° C | 90% | 1010.2 hPa | 0 mm | - | 103 W/m² | - |
| 1777727283 | 23.89° C | 90% | 1010.5 hPa | 0 mm | - | 106 W/m² | - |
| 1777726980 | 23.89° C | 90% | 1010.4 hPa | 0 mm | - | 85 W/m² | - |
| 1777726676 | 23.89° C | 90% | 1010.1 hPa | 0 mm | - | 86 W/m² | - |
| 1777726374 | 23.89° C | 90% | 1009.8 hPa | 0 mm | - | 125 W/m² | - |
| 1777726070 | 23.89° C | 91% | 1009.8 hPa | 0 mm | - | 127 W/m² | - |
| 1777725767 | 23.33° C | 91% | 1009.6 hPa | 0 mm | - | 120 W/m² | - |
| 1777725466 | 23.33° C | 91% | 1009.7 hPa | 0 mm | - | 95 W/m² | - |
| 1777725163 | 23.33° C | 91% | 1009.7 hPa | 0 mm | - | 93 W/m² | - |
| 1777724859 | 23.33° C | 92% | 1009.4 hPa | 0 mm | - | 89 W/m² | - |
| 1777724555 | 22.78° C | 92% | 1009.4 hPa | 0 mm | - | 94 W/m² | - |
| 1777724254 | 22.78° C | 92% | 1009.5 hPa | 0 mm | - | 111 W/m² | - |
| 1777723952 | 22.78° C | 92% | 1009.5 hPa | 0 mm | - | 84 W/m² | - |
| 1777723648 | 22.78° C | 91% | 1009.6 hPa | 0 mm | - | 84 W/m² | - |
| 1777723344 | 22.78° C | 92% | 1009.4 hPa | 0 mm | - | 67 W/m² | - |
| 1777723042 | 22.78° C | 92% | 1009.3 hPa | 0 mm | - | 58 W/m² | - |
| 1777722739 | 22.22° C | 93% | 1009.4 hPa | 0 mm | - | 79 W/m² | - |
| 1777722435 | 21.67° C | 94% | 1009.3 hPa | 0 mm | - | 73 W/m² | - |
| 1777722132 | 21.67° C | 94% | 1009.3 hPa | 0 mm | - | 41 W/m² | - |
| 1777721829 | 21.67° C | 95% | 1009.5 hPa | 0 mm | - | 32 W/m² | - |
| 1777721527 | 21.67° C | 95% | 1009.5 hPa | 0 mm | - | 33 W/m² | - |
| 1777721225 | 21.67° C | 95% | 1009.2 hPa | 0 mm | - | 29 W/m² | - |
* Rain latest hour (hover to see other rain measurements)
** Current wind speed in m/s (hover to see current wind gust speed)